Weather History for KCQX - February, 2012

Change the Weather History Date:

Thursday, February 9, 2012

  Actual Average Record
Temperature  
Mean Temperature 35 °F -  
Max Temperature 42 °F 37 °F 49 °F (1990)
Min Temperature 28 °F 24 °F 12 °F (1979)
Degree Days  
Heating Degree Days 30    
Moisture  
Dew Point 24 °F    
Average Humidity 67    
Maximum Humidity 93    
Minimum Humidity 32    
Precipitation  
Precipitation 0.00 in - - ()
Sea Level Pressure  
Sea Level Pressure 30.03 in    
Wind  
Wind Speed 3 mph (West)    
Max Wind Speed 10 mph    
Max Gust Speed 20 mph    
Visibility 10 miles    
Events Snow    
Averages and records for this station are not official NWS values.
T = Trace of Precipitation, MM = Missing Value Source: NWS Daily Summary

Daily Weather History Graph

Daily Weather History Graph

Search for Another Location

Airport or City:

Trip Planner

Search our weather history database for the weather conditions in past years. The results will help you decide how hot, cold, wet, or windy it might be!

Date:

Astronomy

Feb. 09, 2012 Rise Set
Actual Time 6:43 AM EST 5:05 PM EST
Civil Twilight 6:14 AM EST 5:34 PM EST
Nautical Twilight 5:42 AM EST 6:06 PM EST
Astronomical Twilight 5:09 AM EST 6:39 PM EST
Moon 7:32 PM EST (2/9) 7:15 AM EST (2/9)
Length of Visible Light 11h 19m
Length of Day
10h 21m
Waning Gibbous, 96% of the Moon is Illuminated
Feb 9
Waning Gibbous
Feb 14
Last Quarter
Feb 21
New
Feb 29
First Quarter
Mar 8
Full

Hourly Weather History & Observations

Time (EST) Temp. Windchill Dew Point Humidity Pressure Visibility Wind Dir Wind Speed Gust Speed Precip Events Conditions
12:52 AM 35.1 °F - 28.0 °F 76% 30.07 in 10.0 mi Calm Calm - N/A   Overcast
1:52 AM 35.1 °F 32.2 °F 25.0 °F 67% 30.06 in 10.0 mi Variable 3.5 mph - N/A   Overcast
2:52 AM 32.0 °F 27.5 °F 28.0 °F 85% 30.04 in 6.0 mi Variable 4.6 mph - 0.00 in Snow Light Snow
3:52 AM 30.9 °F 26.2 °F 28.9 °F 92% 30.01 in 10.0 mi NNW 4.6 mph - 0.00 in   Overcast
4:25 AM 30.2 °F - 28.4 °F 93% 29.99 in 10.0 mi Calm Calm - N/A   Mostly Cloudy
4:52 AM 30.9 °F - 28.9 °F 92% 29.99 in 10.0 mi Calm Calm - N/A   Mostly Cloudy
5:52 AM 32.0 °F - 28.0 °F 85% 29.99 in 10.0 mi Calm Calm - N/A   Overcast
6:52 AM 32.0 °F - 27.0 °F 82% 30.00 in 10.0 mi Calm Calm - N/A   Overcast
7:52 AM 33.1 °F 30.0 °F 28.9 °F 85% 30.01 in 10.0 mi WNW 3.5 mph - N/A   Clear
8:52 AM 36.0 °F 31.1 °F 28.0 °F 73% 30.01 in 10.0 mi Variable 5.8 mph - N/A   Clear
9:52 AM 37.9 °F 34.4 °F 21.9 °F 53% 30.01 in 10.0 mi Variable 4.6 mph - N/A   Clear
10:52 AM 39.9 °F 33.4 °F 21.9 °F 49% 30.01 in 10.0 mi NW 10.4 mph 19.6 mph N/A   Clear
11:52 AM 41.0 °F 35.2 °F 17.1 °F 38% 30.00 in 10.0 mi WNW 9.2 mph - N/A   Clear
12:52 PM 42.1 °F 37.7 °F 19.0 °F 40% 29.98 in 10.0 mi Variable 6.9 mph - N/A   Clear
1:52 PM 41.0 °F 36.4 °F 16.0 °F 36% 29.99 in 10.0 mi Variable 6.9 mph - N/A   Clear
2:52 PM 42.1 °F 40.2 °F 14.0 °F 32% 30.00 in 10.0 mi Variable 3.5 mph - N/A   Clear
3:52 PM 41.0 °F - 12.9 °F 32% 30.01 in 10.0 mi Calm Calm - N/A   Clear
4:52 PM 37.9 °F 35.5 °F 24.1 °F 57% 30.03 in 10.0 mi SSW 3.5 mph - N/A   Clear
5:52 PM 32.0 °F - 24.1 °F 73% 30.04 in 10.0 mi Calm Calm - N/A   Clear
6:52 PM 30.0 °F 26.5 °F 23.0 °F 75% 30.06 in 10.0 mi SSW 3.5 mph - N/A   Clear
7:52 PM 32.0 °F 27.5 °F 26.1 °F 79% 30.07 in 10.0 mi WSW 4.6 mph - N/A   Clear
8:52 PM 35.1 °F 32.2 °F 28.0 °F 76% 30.08 in 10.0 mi WSW 3.5 mph - N/A   Clear
9:52 PM 32.0 °F 28.7 °F 26.1 °F 79% 30.09 in 10.0 mi West 3.5 mph - N/A   Clear
10:52 PM 28.9 °F 25.2 °F 21.9 °F 75% 30.11 in 10.0 mi WSW 3.5 mph - N/A   Clear
11:52 PM 28.0 °F - 19.0 °F 69% 30.12 in 10.0 mi Calm Calm - N/A   Clear